Weather History for Lee's Summit, MO

Change the Weather History Date:

Saturday, November 24, 2012

  Actual Average (KMKC) Record (KMKC)
Temperature  
Mean Temperature 34 °F -  
Max Temperature 44 °F 50 °F 66 °F (2011)
Min Temperature 24 °F 33 °F 14 °F (2013)
Degree Days  
Heating Degree Days 31    
Moisture  
Dew Point 16 °F    
Average Humidity 47    
Maximum Humidity 58    
Minimum Humidity 37    
Precipitation  
Precipitation 0.00 in - - ()
Sea Level Pressure  
Sea Level Pressure 30.20 in    
Wind  
Wind Speed 6 mph (SSW)    
Max Wind Speed 14 mph    
Max Gust Speed 20 mph    
Visibility 10 miles    
Events      
Averages and records for this station are not official NWS values.
T = Trace of Precipitation, MM = Missing Value Source: NWS Daily Summary

Daily Weather History Graph

Daily Weather History Graph

Search for Another Location

Airport:

Trip Planner

Search our weather history database for the weather conditions in past years. The results will help you decide how hot, cold, wet, or windy it might be!

Date:

Astronomy

Nov. 24, 2012 Rise Set
Actual Time 7:10 AM CST 4:57 PM CST
Civil Twilight 6:41 AM CST 5:26 PM CST
Nautical Twilight 6:08 AM CST 5:59 PM CST
Astronomical Twilight 5:36 AM CST 6:31 PM CST
Moon 2:41 PM CST (11/24) 3:29 AM CST (11/24)
Length of Visible Light 10h 45m
Length of Day
9h 47m
Waxing Gibbous, 87% of the Moon is Illuminated
Nov 24
Waxing Gibbous
Nov 28
Full
Dec 6
Last Quarter
Dec 13
New
Dec 19
First Quarter

Hourly Weather History & Observations

Time (CST) Temp. Windchill Dew Point Humidity Pressure Visibility Wind Dir Wind Speed Gust Speed Precip Events Conditions
12:53 AM 26.1 °F 21.9 °F 10.0 °F 51% 30.43 in 10.0 mi NNW 3.5 mph - N/A   Clear
1:53 AM 26.1 °F 20.5 °F 10.9 °F 53% 30.42 in 10.0 mi NW 4.6 mph - N/A   Clear
2:53 AM 27.0 °F - 10.0 °F 49% 30.42 in 10.0 mi Calm Calm - N/A   Clear
3:53 AM 25.0 °F - 10.0 °F 53% 30.41 in 10.0 mi Calm Calm - N/A   Clear
4:53 AM 26.1 °F - 10.0 °F 51% 30.38 in 10.0 mi Calm Calm - N/A   Clear
5:53 AM 24.1 °F - 10.9 °F 57% 30.39 in 10.0 mi Calm Calm - N/A   Clear
7:53 AM 25.0 °F 19.3 °F 12.0 °F 58% 30.38 in 10.0 mi South 4.6 mph - N/A   Clear
8:53 AM 28.9 °F 21.9 °F 14.0 °F 54% 30.37 in 10.0 mi South 6.9 mph - N/A   Clear
9:53 AM 30.9 °F 23.5 °F 12.0 °F 46% 30.35 in 10.0 mi South 8.1 mph - N/A   Clear
10:53 AM 35.1 °F 27.4 °F 14.0 °F 42% 30.32 in 10.0 mi South 10.4 mph - N/A   Clear
11:53 AM 37.9 °F 32.1 °F 15.1 °F 39% 30.25 in 10.0 mi SSE 8.1 mph - N/A   Clear
12:53 PM 39.9 °F 33.4 °F 17.1 °F 40% 30.20 in 10.0 mi South 10.4 mph - N/A   Clear
2:53 PM 44.1 °F 38.6 °F 19.0 °F 37% 30.10 in 10.0 mi South 10.4 mph - N/A   Clear
3:53 PM 43.0 °F 37.7 °F 19.9 °F 40% 30.07 in 10.0 mi South 9.2 mph - N/A   Clear
4:53 PM 41.0 °F 36.4 °F 21.0 °F 45% 30.04 in 10.0 mi South 6.9 mph - N/A   Clear
5:53 PM 39.9 °F 33.9 °F 21.9 °F 49% 30.04 in 10.0 mi South 9.2 mph - N/A   Clear
6:53 PM 39.9 °F 32.9 °F 21.9 °F 49% 30.01 in 10.0 mi South 11.5 mph - N/A   Clear
7:53 PM 41.0 °F 34.3 °F 21.9 °F 47% 29.99 in 10.0 mi South 11.5 mph 19.6 mph N/A   Clear
8:53 PM 42.1 °F 34.9 °F 21.9 °F 45% 29.97 in 10.0 mi SSW 13.8 mph - N/A   Clear
9:53 PM 43.0 °F 36.4 °F 21.9 °F 43% 29.95 in 10.0 mi SSW 12.7 mph - N/A   Clear
10:53 PM 44.1 °F 38.6 °F 21.9 °F 42% 29.93 in 10.0 mi SSW 10.4 mph - N/A   Clear
11:53 PM 43.0 °F 37.7 °F 23.0 °F 45% 29.93 in 10.0 mi SSW 9.2 mph - N/A   Clear